Location: Arbon
(43.0005°N, 0.7472°E)
Time: 02:03:32
(UTC+00:00)

Cosmos 1703 - Pass Details

Date: 07 August 2020
Orbit: 523 x 540 km, 82.5° (Epoch: 19 September)

Event Time Altitude Azimuth Distance (km) Brightness Sun altitude
Rises 04:05:17 0° 347° (NNW) 2,710 7.1 -8.8°
Reaches altitude 10° 04:07:28 10° 343° (NNW) 1,812 6.2 -8.5°
Maximum altitude 04:11:22 55° 266° (W) 654 3.4 -7.9°
Drops below altitude 10° 04:15:13 10° 188° (S) 1,791 5.6 -7.2°
Sets 04:17:23 0° 184° (S) 2,675 6.5 -6.9°
